Overview Statistics Trail Chart Weather Telemetry Raw packets
 

This is the latest recevied weather packets stored in our database for station/object KG5VSR. If no packets are shown the sender has not sent any weather packets the latest 10 day(s).

<< 14 15 16 17 18 19 20 >>
Time Temp. Humidity Pressure Rain* Wind** Luminosity Snow
1787967203 34.44° C 44% 1015.2 hPa 0 mm - 0 W/m² -
1787965402 35.56° C 43% 1014.8 hPa 0 mm - 0 W/m² -
1787963598 36.11° C 42% 1014.6 hPa 0 mm - 12 W/m² -
1787961798 36.67° C 42% 1014.2 hPa 0 mm - 36 W/m² -
1787959996 37.22° C 39% 1014.2 hPa 0 mm - 52 W/m² -
1787958191 37.78° C 39% 1014.5 hPa 0 mm - 166 W/m² -
1787956386 37.78° C 39% 1014.5 hPa 0 mm - 287 W/m² -
1787954586 38.33° C 36% 1014.4 hPa 0 mm - 215 W/m² -
1787952783 38.89° C 36% 1014.9 hPa 0 mm - 479 W/m² -
1787950984 38.33° C 39% 1015.3 hPa 0 mm - 550 W/m² -
1787949184 39.44° C 37% 1016.2 hPa 0 mm - 304 W/m² -
1787947380 38.89° C 37% 1016.8 hPa 0 mm - 705 W/m² -
1787945580 38.33° C 39% 1016.9 hPa 0 mm - 712 W/m² -
1787943777 37.78° C 41% 1017.3 hPa 0 mm - 652 W/m² -
1787941975 37.78° C 43% 1017.7 hPa 0 mm - 707 W/m² -
1787940172 37.22° C 47% 1018 hPa 0 mm - 722 W/m² -
1787938369 36.67° C 50% 1018.6 hPa 0 mm - 693 W/m² -
1787936568 36.11° C 51% 1018.6 hPa 0 mm - 764 W/m² -
1787934763 35° C 53% 1018.4 hPa 0 mm - 821 W/m² -
1787932962 34.44° C 59% 1018.6 hPa 0 mm - 704 W/m² -
1787931161 33.33° C 64% 1018.5 hPa 0 mm - 567 W/m² -
1787929361 32.22° C 66% 1018.4 hPa 0 mm - 466 W/m² -
1787927558 31.11° C 68% 1018.4 hPa 0 mm - 198 W/m² -
1787925754 30° C 72% 1018.4 hPa 0 mm - 225 W/m² -
1787923950 29.44° C 73% 1018.3 hPa 0 mm - 124 W/m² -

* Rain latest hour (hover to see other rain measurements)
** Current wind speed in m/s (hover to see current wind gust speed)